Weather in Unecha

Russia / Bryansk Oblast     52°50′42″N   32°40′14″E
temp.,
°C
wind,
m/s
gust,
m/s
humid.,
%
clouds,
%
prec.,
mm/h
press.,
hPa
HPBL,
m
20 june, sun
sun2000:00+18ese36940 0.0 1022115
03:00+17ese36950 0.0 1022108
06:00+17ese36924 0.0 1022151
09:00+21ese577483 0.0 1022458
12:00+24ese566261 0.0 1021919
15:00+26ese5656100 0.0 10201116
18:00+25e3673100 0.0 1019376
21:00+20e4787100 0.0 1019138
21 june, mon
mon2100:00+18ese4109444 0.0 1019196
03:00+17e3792100 0.0 1018139
06:00+17e4109086 0.0 1018242
09:00+22ene697353 0.0 1017352
12:00+25e796235 0.0 1017690
15:00+27ese6962100 0.0 1016842
18:00+26ese596977 0.0 1016616
21:00+22e51187100 0.0 1016261
22 june, tue
tue2200:00+20ese4119516 0.0 1017256
03:00+18ese49950 0.0 1017156
06:00+18ese499134 0.0 1017182
09:00+23ese58715 0.0 1017379
12:00+27ese68595 0.0 1017667
15:00+29se585672 0.0 10171055
18:00+26se4969100 0.0 1017464
21:00+22ese4108361 0.0 1017192
23 june, wed
wed2300:00+20ese36951 0.0 101893
03:00+20e37965 0.0 1018145
06:00+20e389350 0.0 1018166
09:00+25ese697296 0.0 1018389
12:00+28ese68577 0.0 1018793
15:00+31ese595790 0.0 10171297
18:00+29ese596724 0.0 1018650
21:00+23e36895 0.0 101890
24 june, thu
thu2400:00+21ese37945 0.0 1019120
03:00+19ese339110 0.0 101934
06:00+20e369319 0.0 1019120
09:00+25ese467342 0.0 1019367
12:00+29ese465956 0.0 1019877
15:00+31se45486 0.0 10181272
18:00+30sse36635 0.0 1017422
21:00+24se46815 0.0 101792